Weather History for Allentown, PA

Change the Weather History Date:

Friday, April 11, 2014

  Actual Average (KABE) Record (KABE)
Temperature  
Mean Temperature 62 °F 48 °F  
Max Temperature 73 °F 60 °F 84 °F (2011)
Min Temperature 50 °F 37 °F 24 °F (2007)
Degree Days  
Heating Degree Days 4 17  
Month to date heating degree days 203  
Since 1 July heating degree days 5315  
Cooling Degree Days 0 0  
Month to date cooling degree days 0  
Year to date cooling degree days 0  
Growing Degree Days 12 (Base 50)    
Moisture  
Dew Point 39 °F    
Average Humidity 51    
Maximum Humidity 88    
Minimum Humidity 20    
Precipitation  
Precipitation 0.09 in 0.12 in 0.71 in (1948)
Month to date precipitation 1.34  
Year to date precipitation 10.46  
Snow  
Snow 0.00 in 0.10 in T in (2007)
Month to date snowfall 0.6  
Since 1 July snowfall 32.5  
Snow Depth -    
Sea Level Pressure  
Sea Level Pressure 30.00 in    
Wind  
Wind Speed 5 mph (WSW)    
Max Wind Speed 15 mph    
Max Gust Speed 24 mph    
Visibility 10 miles    
Events Rain    
T = Trace of Precipitation, MM = Missing Value Source: NWS Daily Summary

Daily Weather History Graph

Daily Weather History Graph

Search for Another Location

Airport:

Trip Planner

Search our weather history database for the weather conditions in past years. The results will help you decide how hot, cold, wet, or windy it might be!

Date:

Astronomy

Apr. 11, 2014 Rise Set
Actual Time 6:29 AM EDT 7:37 PM EDT
Civil Twilight 6:01 AM EDT 8:05 PM EDT
Nautical Twilight 5:28 AM EDT 8:38 PM EDT
Astronomical Twilight 4:53 AM EDT 9:13 PM EDT
Moon 4:14 PM EDT (4/11) 4:24 AM EDT (4/11)
Length of Visible Light 14h 03m
Length of Day
13h 07m
Waxing Gibbous, 87% of the Moon is Illuminated
Apr 11
Waxing Gibbous
Apr 15
Full
Apr 22
Last Quarter
Apr 29
New
May 6
First Quarter

Hourly Weather History & Observations

Time (EDT) Temp. Dew Point Humidity Pressure Visibility Wind Dir Wind Speed Gust Speed Precip Events Conditions
12:15 AM 55.4 °F 30.2 °F 38% 30.01 in 10.0 mi South 10.4 mph - N/A   Clear
12:35 AM 55.4 °F 30.2 °F 38% 30.00 in 10.0 mi South 11.5 mph - N/A   Clear
12:55 AM 53.6 °F 30.2 °F 41% 29.99 in 10.0 mi SSW 6.9 mph - N/A   Clear
1:15 AM 53.6 °F 30.2 °F 41% 29.99 in 10.0 mi Calm Calm - N/A   Clear
1:35 AM 53.6 °F 30.2 °F 41% 29.99 in 10.0 mi SSW 3.5 mph - N/A   Clear
1:55 AM 53.6 °F 30.2 °F 41% 29.97 in 10.0 mi Calm Calm - N/A   Clear
2:15 AM 53.6 °F 30.2 °F 41% 29.96 in 10.0 mi South 5.8 mph - N/A   Clear
2:35 AM 51.8 °F 32.0 °F 47% 29.95 in 10.0 mi SSW 4.6 mph - N/A   Clear
2:55 AM 51.8 °F 32.0 °F 47% 29.96 in 10.0 mi SSW 4.6 mph - N/A   Clear
3:15 AM 53.6 °F 32.0 °F 44% 29.96 in 10.0 mi Calm Calm - N/A   Clear
3:35 AM 53.6 °F 32.0 °F 44% 29.96 in 10.0 mi Calm Calm - N/A   Clear
3:55 AM 53.6 °F 32.0 °F 44% 29.96 in 10.0 mi Calm Calm - N/A   Clear
4:15 AM 53.6 °F 32.0 °F 44% 29.96 in 10.0 mi Calm Calm - N/A   Clear
4:35 AM 53.6 °F 32.0 °F 44% 29.96 in 10.0 mi Calm Calm - N/A   Clear
4:55 AM 53.6 °F 32.0 °F 44% 29.97 in 10.0 mi Calm Calm - N/A   Clear
5:15 AM 53.6 °F 32.0 °F 44% 29.97 in 10.0 mi Calm Calm - N/A   Clear
5:35 AM 51.8 °F 32.0 °F 47% 29.98 in 10.0 mi NNW 3.5 mph - N/A   Clear
5:55 AM 51.8 °F 33.8 °F 50% 29.99 in 10.0 mi Calm Calm - N/A   Clear
6:15 AM 50.0 °F 33.8 °F 54% 29.99 in 10.0 mi Calm Calm - N/A   Clear
6:35 AM 50.0 °F 33.8 °F 54% 30.01 in 10.0 mi Calm Calm - N/A   Scattered Clouds
6:55 AM 50.0 °F 33.8 °F 54% 30.02 in 10.0 mi Calm Calm - N/A   Scattered Clouds
7:35 AM 53.6 °F 33.8 °F 47% 30.04 in 10.0 mi SSW 5.8 mph - N/A   Mostly Cloudy
7:55 AM 55.4 °F 33.8 °F 44% 30.04 in 10.0 mi SSW 3.5 mph - N/A   Mostly Cloudy
8:15 AM 55.4 °F 33.8 °F 44% 30.04 in 10.0 mi SSW 4.6 mph - N/A   Scattered Clouds
8:35 AM 55.4 °F 33.8 °F 44% 30.03 in 10.0 mi SSW 3.5 mph - N/A   Clear
8:55 AM 57.2 °F 33.8 °F 41% 30.03 in 10.0 mi Calm Calm - N/A   Clear
9:15 AM 59.0 °F 33.8 °F 39% 30.03 in 10.0 mi WSW 3.5 mph - N/A   Clear
9:35 AM 60.8 °F 33.8 °F 36% 30.04 in 10.0 mi SW 3.5 mph - N/A   Clear
10:15 AM 62.6 °F 33.8 °F 34% 30.04 in 10.0 mi WSW 5.8 mph - N/A   Clear
10:35 AM 62.6 °F 33.8 °F 34% 30.04 in 10.0 mi SW 5.8 mph - N/A   Clear
10:55 AM 64.4 °F 33.8 °F 32% 30.04 in 10.0 mi SSW 6.9 mph - N/A   Clear
11:15 AM 66.2 °F 35.6 °F 32% 30.04 in 10.0 mi SSW 9.2 mph - N/A   Clear
11:35 AM 68.0 °F 35.6 °F 30% 30.03 in 10.0 mi SSW 9.2 mph - N/A   Clear
11:55 AM 68.0 °F 37.4 °F 33% 30.02 in 10.0 mi West 6.9 mph - N/A   Clear
12:15 PM 69.8 °F 37.4 °F 31% 30.01 in 10.0 mi WSW 4.6 mph - N/A   Clear
12:35 PM 71.6 °F 35.6 °F 27% 30.01 in 10.0 mi WSW 8.1 mph - N/A   Clear
12:55 PM 71.6 °F 35.6 °F 27% 30.00 in 10.0 mi WSW 6.9 mph - N/A   Clear
1:15 PM 71.6 °F 35.6 °F 27% 29.99 in 10.0 mi SW 8.1 mph - N/A   Scattered Clouds
1:35 PM 71.6 °F 35.6 °F 27% 29.97 in 10.0 mi West 5.8 mph 18.4 mph N/A   Scattered Clouds
1:55 PM 71.6 °F 33.8 °F 25% 29.98 in 10.0 mi WSW 9.2 mph - N/A   Scattered Clouds
2:15 PM 71.6 °F 30.2 °F 22% 29.97 in 10.0 mi WSW 11.5 mph 19.6 mph N/A   Scattered Clouds
2:35 PM 73.4 °F 30.2 °F 20% 29.97 in 10.0 mi WSW 10.4 mph - N/A   Scattered Clouds
2:55 PM 71.6 °F 30.2 °F 22% 29.98 in 10.0 mi West 11.5 mph 19.6 mph N/A   Clear
3:15 PM 68.0 °F 35.6 °F 30% 29.99 in 10.0 mi NW 15.0 mph 18.4 mph N/A   Clear
3:35 PM 64.4 °F 37.4 °F 37% 29.99 in 10.0 mi WNW 9.2 mph 24.2 mph N/A   Clear
3:55 PM 64.4 °F 39.2 °F 40% 29.99 in 10.0 mi West 8.1 mph - N/A   Clear
4:15 PM 64.4 °F 42.8 °F 45% 30.00 in 10.0 mi WNW 8.1 mph 17.3 mph N/A   Clear
4:35 PM 62.6 °F 42.8 °F 48% 29.99 in 10.0 mi WNW 11.5 mph 21.9 mph N/A   Clear
4:55 PM 62.6 °F 44.6 °F 52% 30.00 in 10.0 mi West 12.7 mph 21.9 mph N/A   Scattered Clouds
5:15 PM 60.8 °F 44.6 °F 55% 30.00 in 10.0 mi West 8.1 mph - N/A Rain Light Rain
5:35 PM 59.0 °F 48.2 °F 67% 30.00 in 10.0 mi West 3.5 mph - N/A Rain Rain
5:55 PM 59.0 °F 50.0 °F 72% 29.99 in 10.0 mi West 5.8 mph - N/A Rain Light Rain
6:15 PM 59.0 °F 50.0 °F 72% 30.01 in 10.0 mi WSW 4.6 mph - N/A   Scattered Clouds
6:35 PM 59.0 °F 50.0 °F 72% 30.00 in 10.0 mi West 3.5 mph - N/A Rain Light Rain
6:55 PM 59.0 °F 50.0 °F 72% 30.01 in 10.0 mi West 4.6 mph - N/A   Overcast
7:15 PM 59.0 °F 50.0 °F 72% 30.03 in 10.0 mi West 6.9 mph - N/A Rain Light Rain
7:35 PM 57.2 °F 50.0 °F 77% 30.02 in 7.0 mi Calm Calm - 0.03 in Rain Rain
7:55 PM 55.4 °F 50.0 °F 82% 30.03 in 7.0 mi SSW 3.5 mph - 0.06 in Rain Rain
8:15 PM 55.4 °F 50.0 °F 82% 30.01 in 7.0 mi Calm Calm - 0.02 in Rain Light Rain
8:35 PM 55.4 °F 50.0 °F 82% 30.03 in 10.0 mi SSW 4.6 mph - 0.02 in   Mostly Cloudy
8:55 PM 55.4 °F 50.0 °F 82% 30.02 in 10.0 mi South 3.5 mph - 0.02 in   Light Drizzle
9:15 PM 55.4 °F 50.0 °F 82% 30.02 in 10.0 mi Calm Calm - 0.01 in Rain Light Rain
9:35 PM 55.4 °F 50.0 °F 82% 30.02 in 10.0 mi South 5.8 mph - 0.01 in   Overcast
9:55 PM 55.4 °F 50.0 °F 82% 30.03 in 10.0 mi SW 5.8 mph - 0.01 in   Overcast
10:15 PM 55.4 °F 50.0 °F 82% 30.03 in 10.0 mi SW 3.5 mph - N/A   Overcast
10:35 PM 55.4 °F 50.0 °F 82% 30.03 in 10.0 mi WNW 3.5 mph - N/A   Overcast
10:55 PM 55.4 °F 50.0 °F 82% 30.03 in 10.0 mi Calm Calm - N/A   Overcast
11:15 PM 53.6 °F 50.0 °F 88% 30.04 in 10.0 mi Calm Calm - N/A   Mostly Cloudy
11:35 PM 53.6 °F 50.0 °F 88% 30.04 in 10.0 mi Calm Calm - N/A   Mostly Cloudy
11:55 PM 53.6 °F 50.0 °F 88% 30.04 in 10.0 mi Calm Calm - N/A   Scattered Clouds